Location: Baia Mare
(47.6567°N, 23.5850°E)
Time: 01:36:26
(UTC+03:00)

ISS - Pass Details

Date: 26 July 2018
Orbit: 402 x 408 km, 51.6° (Epoch: 19 July)

Event Time Altitude Azimuth Distance (km) Brightness Sun altitude
Rises 22:47:01 0° 276° (W) 2,320 0.8 -13.5°
Reaches altitude 10° 22:49:11 10° 284° (WNW) 1,462 -0.2 -13.7°
Maximum altitude 22:52:18 40° 356° (N) 617 -2.5 -14.0°
Drops below altitude 10° 22:55:25 10° 68° (ENE) 1,466 -1.2 -14.4°
Enters shadow 22:56:32 - 73° (ENE) 1,903 -0.6 -14.5°
